Theta_e
355 355 353 351 350 348 348 351 354 356 356 354 353 349 348 348 349 351 357 360 359 356 353 352 351 349 347 346 345 345 343 341 340 339 338 337 337 336 335 336 336 336 336 336 335 335 335 335 335 335 335 335 335 336 336 336 338 341 343 343 343 343 344 346 345 343 342 341 341 341 341 342 342 342 342 343 344 344 345 347 348 349 349 349 349
356 354 354 353 352 350 350 351 354 357 356 354 352 350 348 349 353 357 360 357 355 353 351 349 348 347 346 345 343 341 339 338 337 337 335 335 335 335 334 334 334 334 333 333 332 332 332 332 332 332 332 333 333 334 334 335 335 337 339 340 340 340 341 343 343 341 341 341 340 340 341 342 342 341 341 341 342 343 344 345 345 346 347 349 349
355 354 355 354 353 353 353 354 356 357 355 353 352 349 349 354 359 360 357 354 352 350 349 348 346 345 344 342 340 338 336 336 336 336 335 334 334 333 333 332 332 332 331 331 331 330 330 331 331 330 330 331 332 332 333 334 334 335 335 336 337 338 338 339 339 339 339 339 339 339 339 341 340 339 339 340 341 343 343 342 342 343 345 347 347
357 356 355 354 353 354 355 356 356 355 353 353 352 351 355 361 360 357 354 351 349 348 347 346 344 343 341 339 337 336 335 335 336 335 334 333 332 332 331 331 331 331 330 330 329 329 330 330 329 329 330 330 331 331 332 333 333 334 335 335 335 336 336 337 338 338 338 338 338 338 338 338 339 339 339 340 341 341 341 341 341 342 343 344 344
357 355 353 353 354 355 357 356 356 354 354 354 355 358 362 360 355 354 352 349 348 346 345 343 342 340 338 337 336 335 335 335 335 334 333 332 332 331 331 330 330 330 330 329 329 329 329 329 329 329 329 330 330 331 332 333 333 334 334 334 334 335 335 336 337 338 338 337 337 337 337 338 339 340 340 340 341 341 340 341 341 343 344 343 342
355 353 353 354 355 355 357 357 356 355 356 359 362 363 359 355 353 352 350 348 346 344 342 340 338 335 333 335 336 335 335 335 335 334 333 332 331 331 330 330 330 329 329 329 328 328 329 329 329 329 329 329 330 331 331 332 333 333 333 333 333 334 334 335 336 337 338 338 337 337 338 339 340 340 340 341 341 341 341 341 341 342 344 344 342
352 351 352 355 355 355 357 358 358 360 363 365 363 359 355 353 353 350 348 347 344 341 339 337 334 333 332 334 334 334 334 334 334 333 333 332 331 331 330 329 329 329 329 328 328 329 329 329 329 328 329 329 330 331 331 331 331 332 332 333 334 335 335 335 336 337 337 338 338 338 338 339 339 340 340 341 341 341 342 342 341 341 342 344 344
351 352 353 355 356 357 357 359 362 366 366 363 358 355 353 352 350 348 346 344 341 338 336 334 333 333 332 332 333 334 333 332 331 332 333 332 331 330 329 329 329 328 328 328 329 329 328 328 328 328 328 330 330 330 330 330 331 331 333 334 334 335 336 336 337 337 337 338 338 338 339 340 340 340 341 342 341 341 341 341 341 341 342 345 344
350 353 354 356 358 357 359 364 367 365 360 356 354 353 351 349 347 345 343 341 338 335 332 332 333 332 331 332 333 332 331 329 328 328 330 331 330 329 329 329 328 328 329 329 329 329 328 328 328 328 329 330 330 329 329 329 330 332 333 334 334 335 335 336 336 336 337 339 339 339 339 340 340 340 340 340 341 341 341 340 341 341 341 343 345
352 355 356 357 359 362 365 366 364 359 355 354 353 351 349 347 345 343 340 337 333 331 331 333 333 333 333 333 332 331 329 327 326 325 327 329 330 330 329 329 329 329 329 330 330 330 328 328 329 329 330 331 330 330 329 329 330 331 332 333 334 335 335 336 336 336 338 339 338 339 339 338 338 338 339 338 339 340 341 340 341 340 340 341 343
354 356 357 359 364 366 365 363 359 356 354 352 351 348 346 345 342 340 337 333 331 331 332 333 333 334 334 334 332 330 328 326 325 326 326 327 330 330 330 330 330 330 330 330 330 330 329 328 329 329 330 330 330 330 329 329 330 331 331 332 333 334 334 334 336 338 337 337 337 338 339 338 337 339 340 340 340 340 340 340 341 340 341 342 340
355 357 360 365 367 365 362 361 358 355 353 351 349 347 345 343 340 338 335 333 333 333 333 333 333 334 334 333 331 329 327 325 325 326 326 327 329 330 330 330 331 331 331 331 331 330 329 329 329 329 329 329 330 331 330 330 330 331 332 333 334 334 333 334 336 337 337 338 339 339 339 339 339 339 340 341 341 340 341 341 341 339 340 342 340
357 360 365 367 366 362 361 359 356 353 352 349 347 345 344 341 339 337 336 335 334 334 334 333 334 334 333 332 331 329 326 326 325 326 327 328 330 331 331 330 330 331 332 332 331 330 330 329 329 329 329 328 329 331 330 331 332 332 333 334 335 335 334 334 336 337 337 338 340 339 338 339 340 339 340 341 341 341 341 340 340 339 339 341 342
361 365 368 366 363 362 360 357 354 353 350 348 346 345 343 341 339 336 335 334 334 334 334 334 333 333 332 332 330 328 326 326 326 326 326 328 330 331 331 331 331 331 332 332 331 331 330 329 329 329 328 328 329 330 331 332 333 333 333 334 334 334 334 334 335 336 336 337 338 337 336 337 338 338 339 340 340 340 340 339 340 340 340 341 342
365 367 367 364 362 360 358 355 353 352 349 347 346 344 342 340 337 335 335 335 335 334 333 333 333 333 332 331 329 328 326 325 325 325 325 328 330 331 331 331 331 331 331 331 331 330 330 329 329 329 329 329 327 327 331 332 333 333 333 333 333 334 333 333 334 335 335 335 336 335 334 334 334 336 337 339 339 339 340 339 340 341 340 339 341
367 367 365 363 361 359 357 355 352 350 348 347 346 344 341 339 336 336 336 336 335 334 333 333 332 332 332 331 330 328 325 325 325 324 324 328 331 331 332 332 331 331 331 330 330 330 330 330 329 329 330 328 325 325 329 331 331 332 333 332 333 333 332 331 332 333 334 333 334 334 333 332 333 334 336 338 338 338 339 339 340 341 339 338 339
368 366 364 363 360 358 356 353 351 350 348 347 346 343 340 338 336 336 336 336 335 334 333 333 332 332 332 332 331 329 325 324 324 323 323 328 332 332 332 332 332 331 331 330 330 329 328 328 329 329 328 325 323 325 329 330 330 330 331 331 331 332 332 332 332 333 332 332 332 333 332 331 332 332 333 334 336 337 338 339 339 339 338 338 340
367 365 363 361 359 357 354 352 350 349 348 347 344 342 339 337 336 336 335 335 335 334 333 333 332 332 332 331 331 330 326 323 324 323 323 327 332 332 332 333 332 331 331 330 330 327 323 321 323 324 323 322 324 327 329 331 331 331 331 331 331 330 331 332 333 333 332 332 332 332 332 332 332 331 331 331 332 334 336 337 339 340 339 338 339
365 363 362 359 356 355 353 350 350 348 347 345 343 340 338 336 335 336 335 335 334 332 332 331 331 331 329 326 328 330 327 323 323 323 322 326 331 332 331 332 332 331 330 329 329 328 326 323 321 320 319 321 325 328 329 330 331 331 330 331 330 330 330 332 333 333 332 333 333 332 331 332 332 331 331 330 330 331 333 333 335 339 339 337 338
364 361 359 356 354 353 351 350 349 348 346 344 341 338 336 335 336 336 335 333 332 331 330 330 330 329 326 323 325 329 328 323 323 323 322 324 329 332 331 331 331 330 330 329 329 329 329 327 324 320 318 320 324 327 328 329 330 330 330 331 331 331 331 332 332 332 331 332 332 331 331 331 331 330 330 330 329 330 330 331 331 334 336 337 337
361 358 356 353 352 351 350 349 348 346 344 341 338 336 336 336 336 335 333 333 332 331 331 330 329 326 323 323 324 326 327 324 323 323 322 322 325 330 331 331 331 330 330 329 329 328 329 329 326 321 318 319 322 326 327 328 329 329 329 330 330 330 331 331 331 331 330 331 331 330 330 330 330 329 329 329 329 329 329 329 329 330 332 334 334
358 355 353 351 350 350 349 347 346 344 341 338 336 335 336 336 335 334 333 333 332 331 330 330 328 324 323 325 326 325 325 324 322 322 322 322 322 324 327 329 331 331 330 329 328 328 329 329 325 320 318 318 321 324 326 327 328 328 328 329 329 330 331 331 330 330 329 329 329 328 328 328 328 328 328 328 328 328 328 328 328 329 329 330 331
355 353 351 350 350 349 347 345 343 341 338 335 334 335 335 335 334 334 332 331 331 330 330 329 328 327 327 328 330 328 325 323 322 322 322 322 321 321 322 324 328 330 329 329 329 328 328 327 323 319 317 318 319 322 324 326 327 327 328 329 329 329 330 329 329 328 327 327 326 326 326 326 327 327 327 327 327 327 327 327 327 328 328 329 329
352 350 349 348 348 346 344 343 340 338 335 332 332 334 335 334 333 332 331 331 331 330 330 329 329 329 329 330 330 330 328 324 322 322 322 322 321 321 320 321 323 325 327 327 327 325 325 324 321 318 317 318 319 320 322 324 325 325 326 327 328 328 328 327 327 327 326 325 324 324 324 324 326 326 327 327 327 326 327 327 326 325 325 326 326
350 348 347 347 345 343 342 340 337 335 331 329 330 333 333 332 332 331 331 330 330 329 329 329 329 329 329 329 329 330 329 326 323 322 321 321 321 320 320 320 319 322 324 323 321 320 320 320 318 317 319 322 323 323 323 323 323 324 324 325 326 327 327 326 326 325 325 324 323 323 323 323 324 325 326 326 326 325 325 326 326 324 322 322 322
348 347 347 345 343 341 339 337 334 331 328 327 328 330 330 331 331 331 330 329 329 329 329 329 329 329 329 329 328 328 329 328 326 324 322 322 321 319 319 319 318 319 321 320 319 319 318 318 318 318 319 322 324 325 325 325 324 323 324 323 324 326 328 328 327 326 325 325 324 325 325 324 323 323 324 325 324 324 324 325 325 324 322 321 320
347 346 345 343 340 339 336 333 330 328 327 328 328 328 328 329 330 330 330 329 329 329 329 328 329 329 329 329 328 328 329 328 327 327 327 326 324 322 322 322 323 323 324 324 323 322 319 318 319 320 321 322 323 324 325 325 325 325 324 324 324 325 326 328 328 327 327 326 326 326 326 325 324 323 323 323 323 323 324 324 324 323 323 323 321
346 345 343 341 338 337 333 330 328 327 327 328 329 328 328 328 328 329 329 329 329 329 329 329 329 328 328 328 328 328 327 327 328 328 328 327 327 327 326 326 327 327 325 325 326 325 323 323 323 325 325 325 324 324 324 323 324 324 324 324 324 324 324 325 326 327 327 326 326 325 325 324 323 323 323 323 323 323 325 326 325 323 322 323 323
344 342 339 337 335 333 330 328 327 327 328 328 328 328 327 327 328 329 329 329 329 329 329 329 329 328 328 329 328 328 327 326 325 324 323 323 324 325 326 326 326 324 321 323 325 326 325 325 325 325 325 324 324 324 324 323 323 323 322 323 323 323 323 323 324 325 325 325 324 323 323 323 322 322 322 323 322 322 324 326 326 324 323 323 323
342 339 337 334 332 330 328 326 325 327 328 327 326 326 326 327 328 329 328 328 328 328 329 329 329 328 329 330 330 329 327 323 321 319 319 318 318 319 320 321 321 319 318 321 324 325 324 324 324 324 323 323 323 323 324 323 323 322 322 321 321 321 322 323 323 321 321 321 320 320 320 320 321 321 321 321 321 321 322 323 324 323 322 322 323
340 338 336 333 329 328 328 326 325 327 327 326 325 324 324 325 326 326 326 326 326 326 327 327 326 327 328 327 327 326 324 322 320 319 319 318 317 317 317 317 318 318 318 321 325 325 324 324 323 323 323 323 323 323 323 323 323 322 321 320 321 320 320 322 323 320 318 319 319 318 318 318 318 319 319 319 319 320 320 321 321 321 321 321 322
339 337 336 332 330 329 329 327 326 326 326 326 326 325 323 322 322 322 323 323 323 323 322 322 322 322 322 322 322 322 321 320 320 320 319 318 317 317 317 317 318 317 318 322 325 325 324 323 323 323 323 322 322 322 322 322 322 322 321 320 320 319 318 321 322 319 318 318 318 318 318 318 317 318 317 317 317 317 318 318 319 320 320 320 320
339 337 335 334 332 330 329 327 326 326 326 326 326 326 324 321 319 318 318 319 319 319 319 319 318 317 317 318 319 320 320 320 320 320 319 318 318 317 317 318 318 317 319 324 326 325 324 324 324 323 323 323 322 322 322 322 322 321 321 320 319 319 320 322 321 319 318 318 318 318 318 318 317 317 317 317 317 316 316 316 317 318 319 319 319
336 335 334 333 332 330 329 328 327 326 326 326 326 326 324 322 320 318 318 318 319 318 317 316 315 315 316 316 317 318 318 319 319 319 319 319 318 318 318 318 317 317 320 325 326 325 324 324 324 323 323 323 322 322 322 322 322 321 321 320 320 320 321 322 321 320 319 318 318 318 318 318 318 317 317 318 317 316 315 315 316 317 317 318 319
333 332 332 331 329 328 327 326 325 324 324 325 326 326 324 323 322 321 321 321 320 320 318 317 316 316 316 316 316 316 316 317 318 318 318 318 318 317 319 321 321 320 321 324 325 325 324 324 324 324 324 323 323 322 322 322 322 322 321 320 320 320 320 320 320 320 320 318 318 318 318 318 318 318 317 317 317 316 315 314 315 316 318 318 318
332 330 329 328 327 326 325 325 324 323 323 324 325 325 325 325 324 323 323 322 321 320 319 318 317 316 316 317 316 316 316 316 316 316 316 316 317 317 321 325 325 323 323 323 323 322 323 323 323 323 323 323 323 323 322 322 321 321 321 321 321 321 320 320 320 321 320 318 319 319 319 318 319 318 317 317 317 316 315 314 313 314 316 317 317
332 331 329 328 326 326 326 326 325 324 322 322 324 326 327 326 325 324 323 322 320 320 320 320 319 317 317 317 317 316 316 316 315 315 315 315 314 315 319 324 324 323 323 323 322 322 322 321 321 322 322 322 323 323 322 322 321 320 321 322 321 319 318 318 320 321 320 319 319 319 318 318 318 318 317 317 317 316 316 315 314 314 314 315 316
332 331 330 328 327 328 328 328 326 323 321 321 323 326 327 326 325 324 323 321 320 320 322 321 319 319 320 319 317 317 317 316 315 315 315 314 314 316 319 322 323 323 323 323 321 322 322 320 319 319 319 319 320 322 322 322 322 321 321 321 320 319 318 319 320 320 320 319 318 319 318 318 317 317 317 317 317 316 315 315 315 315 314 314 315
333 331 329 328 328 328 329 328 325 323 322 323 324 325 326 326 325 324 322 321 320 320 321 320 318 319 321 321 319 319 318 317 317 318 317 317 319 320 320 321 321 321 322 321 320 320 320 319 317 315 315 316 318 320 322 323 322 322 322 321 320 320 320 320 319 319 318 318 318 318 318 317 317 317 316 317 317 316 316 315 315 315 315 315 315
333 330 329 328 328 328 329 328 327 326 326 324 324 324 325 325 325 323 322 321 319 319 319 319 318 319 322 322 321 320 318 317 319 320 320 320 320 320 320 321 321 321 321 320 320 320 320 320 318 315 314 314 316 318 321 322 322 322 321 321 320 320 320 319 319 318 318 317 317 317 318 318 317 316 316 316 316 316 316 316 315 315 315 315 315
333 330 328 328 329 329 329 329 328 328 328 326 325 324 324 324 324 322 321 319 318 318 319 318 318 320 322 322 320 319 319 320 320 320 321 321 320 320 321 322 322 322 321 320 321 321 321 321 320 317 315 314 314 316 318 320 320 321 321 320 320 320 319 319 319 318 317 317 317 317 316 316 316 315 314 315 317 317 316 316 316 316 316 316 316
333 330 328 328 328 329 329 329 329 329 329 328 327 325 324 323 322 321 320 319 318 318 318 318 319 322 321 318 316 316 319 321 320 319 319 320 320 320 321 322 322 323 322 322 322 321 321 321 320 319 317 314 313 314 316 318 320 321 320 320 320 320 319 319 318 317 317 316 316 316 315 314 315 315 315 316 317 317 316 317 317 317 317 317 316
332 330 328 327 327 328 329 329 330 330 330 329 328 327 326 325 324 322 320 318 318 318 318 317 320 322 319 314 313 314 317 320 320 318 318 319 319 319 320 320 320 320 321 321 322 322 321 320 320 320 319 316 313 313 314 317 319 320 320 320 320 320 319 319 317 317 318 317 315 315 315 315 315 315 315 316 317 317 317 317 317 317 317 318 317
332 330 329 328 328 329 330 330 330 330 330 330 329 328 327 327 326 325 322 319 317 318 317 316 319 321 318 314 314 315 316 319 320 318 318 318 319 319 318 319 319 319 319 319 320 320 320 320 320 320 319 317 315 313 312 314 317 318 319 319 319 318 318 319 318 317 317 317 316 315 314 314 315 315 314 315 317 317 317 317 317 316 317 318 318
331 330 329 328 328 329 330 330 330 330 329 329 328 328 327 327 327 326 323 319 317 317 317 316 317 319 318 317 316 316 317 319 319 319 318 319 319 319 319 319 320 319 318 318 319 319 320 320 320 320 319 318 317 315 312 312 314 316 317 319 319 318 319 319 318 317 317 317 317 315 314 314 315 315 314 315 316 317 317 317 317 317 317 318 318
331 330 329 329 329 329 330 329 329 330 329 328 328 328 327 327 326 324 320 318 316 316 316 316 316 317 318 318 317 316 318 319 319 319 318 318 318 319 319 320 320 319 319 319 320 320 319 320 320 320 320 319 318 317 314 312 311 312 315 317 318 319 319 318 317 317 317 317 317 316 315 315 314 312 313 314 315 316 316 317 317 317 318 318 318
332 330 330 330 330 329 329 329 329 329 328 328 328 327 326 325 323 320 317 317 317 317 317 318 318 317 318 318 317 316 317 319 319 318 318 319 319 319 320 320 319 319 320 319 320 320 320 320 320 320 320 320 319 318 316 314 312 311 311 313 314 317 317 315 315 317 317 317 317 316 316 316 314 313 313 315 316 316 317 317 317 318 318 318 318
332 331 330 330 329 328 328 328 327 327 327 327 326 325 323 321 319 318 318 319 321 321 321 321 322 320 319 318 318 316 316 318 319 318 318 319 320 320 320 320 319 319 319 320 320 320 320 320 320 320 320 320 320 319 318 316 314 312 311 310 311 311 310 309 313 317 317 316 316 316 316 316 316 315 315 316 317 317 318 318 317 318 318 318 318
333 332 330 329 328 328 327 327 325 325 325 324 322 321 319 318 319 320 322 323 323 323 322 322 322 321 319 318 317 316 315 317 318 319 319 320 320 320 321 321 320 319 319 320 320 320 319 320 320 319 319 320 320 319 318 317 315 314 313 311 309 307 305 305 309 311 311 312 315 316 315 316 317 316 315 316 317 317 318 319 318 318 318 318 318
334 333 331 330 329 328 328 327 325 324 323 321 320 319 318 319 321 323 324 324 324 323 323 323 322 321 319 318 316 315 315 317 318 319 319 320 320 321 321 321 321 320 320 320 320 320 320 320 320 319 319 319 320 320 319 318 316 315 314 311 307 305 305 305 306 306 306 310 315 317 316 317 319 318 317 317 318 318 319 319 318 318 318 318 318
334 334 333 331 330 330 329 328 327 324 320 319 319 319 319 321 323 325 325 325 325 325 324 324 322 320 319 318 316 315 315 317 318 319 319 320 321 321 322 322 322 322 321 321 321 321 321 320 320 320 319 319 319 319 319 318 318 316 313 309 305 305 305 305 305 305 305 307 312 316 316 317 318 319 319 319 318 318 318 318 317 317 318 318 318
Wind_Speed
16 15 15 13 12 12 11 11 11 12 12 12 11 10 9 8 7 6 3 2 1 1 2 3 3 4 4 5 5 6 8 9 9 9 10 11 10 10 11 13 12 12 12 12 13 13 13 13 13 12 12 12 12 12 12 12 11 11 11 11 11 11 11 12 11 11 14 14 14 14 13 12 11 10 9 8 7 6 7 8 9 10 10 10 12
17 17 16 14 13 12 10 9 10 11 11 11 10 9 8 7 6 4 3 3 3 3 4 5 5 5 5 5 6 7 8 9 9 9 10 11 11 10 11 13 12 12 12 13 13 13 13 13 13 13 12 12 12 11 11 11 11 11 11 11 12 11 10 11 11 10 13 14 13 13 12 11 10 9 9 8 7 7 8 9 9 9 9 9 10
18 18 16 15 14 12 11 11 11 11 10 9 9 8 7 5 5 6 5 5 5 6 7 6 6 6 5 5 6 7 8 8 8 9 10 11 12 11 11 12 12 13 13 13 13 13 13 13 13 13 13 13 12 11 10 10 10 11 11 10 11 11 10 11 11 11 13 14 12 12 11 10 11 10 9 9 8 9 10 11 10 10 10 10 10
16 16 16 14 13 13 12 12 12 11 10 9 8 7 6 7 7 7 7 7 8 8 8 7 6 6 5 6 7 7 8 9 9 9 10 11 11 11 12 12 12 13 13 13 13 13 14 14 13 13 13 13 12 11 11 11 11 11 11 11 10 10 9 9 10 11 12 13 12 11 10 10 11 10 9 8 8 8 9 9 9 9 10 10 11
16 16 16 14 13 13 13 13 12 11 9 8 7 7 8 9 8 9 10 9 9 9 8 7 6 6 6 6 7 8 9 9 9 9 9 10 11 11 12 12 13 13 13 14 13 13 14 14 14 13 13 12 12 12 12 13 12 11 11 11 10 9 8 8 9 9 11 12 12 11 10 10 9 8 8 9 8 8 8 8 8 8 8 9 9
17 17 16 14 14 13 13 12 11 10 10 9 9 10 10 10 10 11 12 11 11 9 8 7 6 6 7 7 8 10 10 9 9 9 9 10 10 11 11 12 13 13 13 13 13 13 13 13 12 13 12 12 12 12 13 14 12 11 11 11 10 9 8 7 7 8 9 10 10 10 9 8 8 7 6 7 8 7 7 7 7 6 5 5 6
19 19 17 15 15 13 12 11 11 11 11 11 11 11 11 12 13 13 13 13 11 10 9 8 7 8 9 10 10 11 10 9 9 8 9 10 10 11 12 12 13 13 13 13 13 13 12 12 12 12 11 11 12 12 13 12 11 11 10 9 9 9 9 7 6 6 7 7 7 7 6 6 6 6 5 6 7 6 4 5 5 4 3 4 5
20 19 17 16 14 13 12 12 12 12 13 13 12 12 13 14 15 15 15 13 11 10 9 9 9 10 11 12 12 11 10 10 10 9 8 9 10 11 12 13 13 13 13 13 12 12 12 11 10 11 11 11 11 12 12 13 12 11 10 9 10 8 6 6 6 4 4 5 5 4 4 4 3 3 4 4 4 4 3 3 4 4 3 1 4
21 19 18 16 14 14 13 13 13 14 15 15 14 15 16 17 17 17 15 13 11 10 10 10 11 12 13 12 11 10 10 11 12 11 9 8 9 11 12 13 14 13 12 12 12 12 11 10 9 9 10 10 10 11 12 13 13 12 11 11 13 12 9 7 6 6 5 4 3 3 3 3 3 3 4 4 4 3 3 3 4 4 2 2 3
21 19 17 16 15 15 15 15 15 16 16 16 16 17 18 18 18 17 15 13 12 12 12 12 12 13 12 11 10 10 10 12 13 14 11 8 8 10 12 12 13 12 11 12 13 13 11 9 8 8 10 11 11 11 11 12 12 12 11 11 12 13 12 10 9 8 6 5 4 4 4 5 7 6 6 7 6 4 4 4 4 5 4 2 2
20 19 17 16 16 17 17 16 17 17 18 18 19 19 20 19 18 17 15 14 13 13 14 14 13 12 11 10 10 10 11 12 13 13 13 10 8 10 11 11 11 11 11 12 13 14 11 8 8 8 10 12 12 11 11 11 10 10 10 10 10 10 10 10 9 8 7 7 7 6 6 7 8 8 7 7 7 6 5 4 5 6 4 1 3
19 18 17 17 18 18 18 18 19 19 20 20 20 21 21 20 19 16 14 14 14 14 14 14 13 11 11 10 10 10 11 13 14 13 14 13 10 9 10 11 12 12 12 12 13 13 11 8 7 9 11 12 12 11 10 10 9 8 9 9 9 8 8 9 9 9 9 9 9 9 9 8 7 8 7 7 7 7 6 5 7 7 5 5 6
18 17 17 18 19 19 19 20 21 21 21 22 22 22 21 19 17 16 15 14 15 15 14 13 12 11 11 11 11 11 12 14 15 14 14 13 11 10 10 11 12 12 13 12 12 12 10 8 8 9 10 10 10 11 11 9 8 8 10 11 12 12 11 11 11 10 11 12 11 12 12 10 8 8 8 8 7 6 6 6 7 8 7 8 8
18 18 18 18 19 20 21 22 22 22 23 23 23 22 20 18 16 16 16 16 15 15 14 13 12 11 11 12 11 11 13 14 14 14 13 12 11 10 10 11 11 12 13 13 13 12 10 9 8 9 10 10 9 10 10 10 9 9 10 11 13 13 14 14 14 14 14 15 14 15 16 13 11 10 8 8 8 7 7 6 7 7 7 7 7
19 19 19 20 21 22 23 24 23 23 24 24 23 21 19 18 17 16 16 16 15 15 14 13 12 11 11 12 11 11 12 13 13 12 12 11 11 10 9 11 11 12 13 14 13 12 10 9 8 9 10 10 10 8 8 10 10 8 9 10 11 12 14 15 15 15 15 14 15 16 16 15 14 12 9 9 9 8 5 5 6 5 5 7 7
19 19 20 21 23 24 25 25 25 24 24 23 22 20 19 18 17 16 16 15 15 14 14 13 12 12 12 12 11 10 10 11 12 12 11 11 11 10 9 11 12 12 14 15 15 13 11 10 10 10 10 11 11 9 8 9 8 6 6 7 7 9 11 13 14 15 16 15 14 14 16 19 19 15 11 10 11 9 5 6 7 5 5 6 7
19 20 21 22 23 24 26 27 26 25 25 23 21 20 19 18 17 17 17 16 15 15 14 13 12 12 12 11 10 9 8 10 11 11 11 12 12 10 10 11 12 13 14 15 15 14 13 12 11 11 12 14 13 10 9 8 7 6 6 6 7 8 8 8 10 13 16 17 16 16 18 21 21 19 16 14 13 12 10 11 11 7 6 6 6
19 21 21 22 23 24 26 29 28 26 25 23 22 21 20 18 18 18 18 17 16 15 14 13 12 12 11 11 9 8 7 9 11 11 12 13 12 11 11 12 13 13 14 14 14 14 15 17 17 16 16 17 15 12 11 11 9 9 9 9 9 9 8 7 8 11 14 16 17 16 17 18 18 19 20 19 17 16 15 14 14 10 8 7 6
20 21 21 23 24 25 26 29 29 27 25 23 23 22 20 19 19 18 17 17 16 15 14 13 12 11 11 12 10 7 6 9 11 11 13 14 13 12 12 13 13 13 13 13 12 12 13 16 19 20 20 19 16 13 13 14 13 11 10 11 11 10 9 9 10 11 12 14 14 14 15 15 15 15 18 19 19 18 16 15 14 12 10 9 7
20 22 23 24 24 24 26 28 28 27 25 24 23 22 21 19 19 18 17 16 15 14 13 13 12 11 11 11 9 6 6 9 11 11 13 14 13 12 11 12 13 12 12 12 11 10 10 12 16 20 21 20 17 15 15 17 16 14 13 13 12 12 12 12 12 11 11 12 13 13 13 13 14 14 15 17 18 18 17 16 15 14 12 11 11
21 23 24 24 23 23 25 28 28 26 26 26 24 22 20 19 19 17 16 15 14 14 14 13 13 13 12 11 8 7 8 9 11 12 12 13 13 11 10 10 10 10 11 11 10 10 10 10 12 18 21 20 18 17 16 17 17 16 16 16 14 13 13 12 11 11 11 12 12 12 13 13 14 15 16 16 17 17 17 16 16 15 14 14 13
22 23 24 23 23 24 25 27 27 26 27 28 26 21 18 18 18 16 15 15 15 15 14 14 14 14 13 10 8 8 9 10 11 12 12 13 13 13 12 11 10 10 11 11 10 10 9 9 11 16 20 20 19 19 18 18 18 18 18 17 16 14 13 12 12 12 13 13 13 13 14 15 15 16 17 17 18 18 18 18 17 17 16 15 14
22 23 23 23 23 24 27 29 29 27 28 28 25 21 19 17 16 15 15 16 16 15 14 14 14 13 11 9 8 8 9 10 11 12 13 12 13 13 14 13 12 10 10 11 10 8 8 8 10 14 18 21 21 22 21 19 18 19 18 16 15 15 14 14 14 14 14 15 15 15 15 15 16 17 17 17 17 18 18 19 19 18 16 15 14
24 23 24 25 25 26 29 31 31 29 29 28 24 20 19 17 16 16 16 16 15 15 14 14 13 12 10 9 8 8 8 10 11 11 12 12 12 12 13 13 13 12 11 11 10 9 8 9 11 13 16 19 21 23 23 22 20 19 17 16 15 15 15 15 14 14 15 15 16 16 17 16 16 15 14 14 14 15 15 16 17 18 18 18 17
23 24 25 26 28 30 33 33 32 32 32 31 28 24 21 19 17 16 15 15 14 14 14 13 12 12 11 10 9 9 8 9 10 11 11 11 11 11 11 12 12 13 12 12 12 12 11 11 11 12 13 14 15 16 19 21 21 20 18 16 16 15 15 15 15 14 15 15 15 16 16 16 16 15 14 13 13 13 14 15 15 17 18 19 20
22 24 27 27 29 34 34 32 32 33 33 32 31 30 27 21 17 15 15 14 14 14 13 13 13 11 11 10 10 10 9 9 9 9 9 9 9 9 10 11 11 12 12 12 12 11 11 11 11 11 11 12 12 11 12 15 17 18 18 17 17 16 15 15 14 14 14 14 14 15 15 15 15 15 14 15 15 14 14 14 14 15 15 16 19
24 25 24 24 30 36 37 35 34 32 31 29 29 31 30 24 18 16 15 15 15 14 13 13 12 12 11 10 10 10 9 9 8 7 7 7 7 7 7 8 8 8 9 9 8 7 7 8 8 7 8 9 10 10 10 11 12 13 14 15 15 15 15 14 14 14 13 13 13 13 13 13 13 14 14 15 15 14 14 13 14 13 13 13 15
23 21 19 21 24 28 31 34 32 29 28 27 24 25 29 27 21 17 16 15 14 13 12 12 12 12 12 11 10 10 9 9 8 7 6 6 6 5 5 4 4 4 5 6 6 5 4 4 4 3 3 4 6 7 9 10 11 11 11 11 12 12 12 13 13 13 12 12 11 11 11 11 12 13 13 13 14 13 13 13 13 12 12 12 13
20 22 24 23 21 18 19 22 23 22 22 22 17 17 25 29 23 18 16 15 14 14 12 11 11 11 11 11 10 9 9 9 9 8 7 6 6 6 6 5 4 5 5 5 5 4 3 2 2 2 3 4 5 6 7 8 9 10 10 10 10 10 10 11 12 12 11 11 11 11 11 11 11 11 12 12 12 12 11 11 11 10 11 11 12
21 23 24 25 26 26 23 22 21 18 17 20 19 17 22 25 23 21 20 17 16 15 13 12 12 11 10 9 8 7 9 11 11 9 8 8 8 8 7 7 6 6 6 6 5 4 3 2 2 3 4 5 5 6 6 6 7 8 9 10 10 10 10 10 10 10 10 10 11 10 10 10 10 10 10 10 10 10 10 10 10 9 10 10 11
21 20 19 23 29 30 24 23 24 18 15 20 21 19 20 22 21 21 22 19 17 16 14 13 13 11 10 10 9 8 10 13 11 9 8 8 8 8 7 6 6 5 5 5 4 3 2 2 2 3 4 5 6 6 6 6 6 7 8 9 9 9 9 9 9 9 9 10 10 10 10 10 10 10 9 9 9 9 9 9 9 9 9 10 10
18 17 17 21 24 20 16 19 22 19 18 20 18 17 20 23 21 20 19 18 16 15 13 12 13 11 10 11 11 10 12 13 11 9 8 7 7 7 6 6 5 5 5 3 2 2 2 3 3 3 4 4 5 5 6 6 6 7 7 8 8 9 9 9 9 9 9 9 9 9 9 9 9 9 9 9 9 8 8 8 8 8 8 9 9
17 17 16 17 17 16 15 17 17 16 17 17 15 15 19 22 21 20 19 17 15 14 13 12 12 11 10 11 12 12 13 13 11 9 8 7 6 6 5 4 4 3 3 2 2 2 2 3 3 3 4 4 4 5 5 6 6 6 7 7 8 8 7 6 7 8 8 8 9 9 9 9 9 9 9 9 9 9 9 9 8 8 7 7 7
21 21 19 17 16 16 15 15 14 15 15 15 14 14 16 18 20 20 18 16 15 13 13 12 12 12 11 11 12 12 12 11 11 9 8 7 6 5 4 3 2 2 2 2 2 2 2 2 2 3 3 3 3 4 5 5 5 5 5 6 6 6 5 5 6 7 7 8 8 9 9 8 9 9 9 9 9 10 10 9 9 9 8 8 7
25 25 23 23 22 19 18 17 17 19 18 16 15 15 16 17 18 17 16 15 14 13 12 12 13 13 12 12 11 11 11 10 10 9 8 7 6 5 4 3 3 3 3 3 2 1 1 2 2 2 2 3 3 3 3 4 4 5 4 4 4 4 4 5 6 6 6 7 8 8 8 8 8 8 9 9 9 10 10 10 10 9 9 9 8
24 23 24 27 27 25 22 20 20 20 20 18 16 16 16 15 15 15 15 14 13 13 12 12 12 13 12 11 11 11 10 9 8 8 7 6 6 5 4 3 3 4 3 3 2 2 1 1 1 1 1 2 2 2 2 3 4 4 5 5 4 4 4 5 5 5 5 6 7 7 7 8 8 7 8 9 9 10 10 10 11 11 10 9 9
20 20 21 23 25 24 20 18 18 20 21 18 15 14 15 14 14 14 14 13 13 13 12 12 13 13 11 11 10 10 10 9 8 7 6 5 5 5 4 3 2 3 3 3 3 2 2 1 1 0 1 1 1 1 1 2 2 3 4 4 5 5 5 5 5 5 4 5 6 6 6 7 7 7 7 8 8 9 9 9 9 10 10 9 8
19 21 21 22 24 22 18 17 20 23 21 18 15 14 14 14 13 13 13 13 13 13 12 13 13 12 12 12 11 10 10 9 8 7 7 6 5 6 5 4 3 3 3 3 3 2 2 1 1 1 1 1 1 1 1 1 1 2 2 3 3 4 3 3 4 4 4 4 5 5 6 6 6 6 6 6 7 8 9 9 8 8 9 9 9
18 22 25 26 25 22 18 18 21 21 19 17 15 15 14 14 14 13 13 13 13 12 12 13 12 11 12 13 13 12 11 10 8 8 8 7 6 6 5 4 4 4 3 3 3 3 2 2 1 1 1 1 1 2 2 2 2 1 1 1 1 2 2 3 3 4 4 5 5 5 5 6 6 6 5 5 6 7 8 8 9 8 8 8 8
17 20 24 26 24 20 18 17 18 19 18 17 17 15 14 14 14 13 13 13 12 12 11 12 11 11 12 14 14 13 11 9 8 8 8 7 7 6 5 5 4 4 4 3 3 3 3 2 2 2 1 1 2 2 2 2 2 2 2 1 1 2 2 3 4 4 4 4 4 4 4 5 5 5 5 5 5 6 6 6 7 7 8 8 7
16 19 22 22 20 18 17 16 16 18 18 17 16 15 14 14 14 13 13 13 12 12 11 11 11 11 12 14 16 14 10 8 8 8 7 7 7 6 6 5 4 4 4 4 4 3 3 2 2 2 2 2 2 2 3 3 3 3 3 2 1 1 1 2 3 3 4 4 4 4 4 4 4 5 5 4 3 4 4 5 6 6 7 8 7
17 19 21 20 18 17 17 16 16 17 17 16 16 15 14 14 13 13 13 13 12 12 11 11 10 11 13 15 16 14 9 6 6 8 7 7 7 7 6 5 5 4 4 4 4 4 3 3 3 2 2 2 2 2 3 3 4 3 3 3 2 1 1 2 2 2 3 4 4 4 4 3 3 4 3 2 3 3 4 5 5 5 6 7 7
17 19 21 21 19 18 18 17 16 15 15 16 15 14 14 14 13 13 13 13 12 12 12 11 11 11 13 15 15 13 9 6 6 7 8 7 7 7 6 5 5 5 5 4 4 4 4 3 3 3 3 2 2 2 2 3 3 3 3 3 2 2 1 1 1 1 2 3 3 3 3 3 2 2 2 2 2 3 4 4 5 5 5 6 6
17 18 19 20 18 17 17 18 17 15 14 15 14 14 14 14 14 14 14 14 13 12 12 12 12 12 13 15 14 12 10 8 7 8 8 7 7 7 7 6 6 6 5 5 5 5 4 4 4 4 3 3 3 3 2 3 3 3 3 3 3 2 2 1 1 1 1 2 2 2 2 2 1 2 2 2 2 2 3 3 4 4 5 5 5
17 17 18 18 17 15 15 15 16 15 14 14 14 14 15 14 14 14 15 15 14 13 12 12 12 12 13 14 14 12 11 10 9 9 9 8 8 8 7 7 7 6 6 6 5 5 5 4 4 4 5 4 4 3 3 3 3 3 3 3 3 2 2 1 1 0 0 1 1 1 1 1 1 1 2 2 2 2 2 3 3 3 3 3 4
16 17 17 17 17 16 15 14 14 14 14 14 14 15 15 15 15 15 15 14 14 13 12 12 13 13 12 13 13 13 12 11 10 10 10 9 9 9 8 8 8 7 7 6 6 6 5 5 5 5 5 5 5 5 4 4 4 4 4 3 3 2 2 2 2 1 1 1 1 0 0 0 1 1 1 1 2 2 2 2 2 2 3 3 3
15 16 16 16 17 16 15 14 14 14 14 15 15 15 15 16 15 15 15 14 14 13 13 12 12 13 13 13 13 13 13 12 11 11 11 11 10 9 9 9 9 8 8 7 6 6 6 5 5 5 6 6 6 6 6 5 5 4 5 5 4 4 4 4 3 2 2 2 1 1 0 0 1 1 1 0 1 1 1 1 1 1 2 3 3
14 14 15 15 15 15 15 14 15 15 15 15 16 16 16 16 16 15 15 14 14 13 13 12 12 12 13 13 13 13 13 13 12 12 12 12 11 11 10 10 10 9 9 8 8 7 6 6 6 6 6 7 7 7 7 7 6 6 6 6 6 7 7 6 4 4 4 3 2 1 1 1 1 1 1 1 1 1 1 2 2 2 3 4 4
14 14 14 14 14 14 13 13 14 15 15 15 16 16 16 16 16 15 15 14 14 14 13 13 12 13 13 13 13 13 13 14 13 13 13 13 13 12 12 11 11 10 10 9 9 8 8 7 7 6 6 7 8 8 8 8 8 7 7 7 8 8 7 6 6 6 5 4 2 3 3 2 1 1 2 2 2 2 2 3 3 4 4 5 5
14 14 14 14 14 13 13 13 13 14 15 16 16 16 16 16 15 15 15 14 14 14 14 13 13 13 13 13 13 14 14 14 14 14 14 13 13 13 13 12 12 11 11 10 9 9 9 9 8 8 8 7 8 8 9 9 8 8 9 9 9 8 7 7 7 7 6 5 4 4 4 3 3 3 3 3 3 4 4 4 4 5 6 7 6
14 14 14 14 13 12 12 12 13 13 14 15 16 16 16 16 15 15 15 15 14 14 14 14 14 14 14 14 14 14 15 15 15 15 14 14 14 14 14 13 13 12 11 10 10 9 9 9 9 9 9 8 8 9 9 9 9 10 11 10 9 8 8 8 8 7 8 8 6 5 4 5 4 4 4 4 4 5 5 5 6 7 7 8 8
Wind_Direction
199 203 207 211 214 216 217 214 213 217 224 233 240 247 252 252 254 257 245 202 147 113 88 92 94 87 74 57 42 21 7 6 8 5 3 2 358 355 355 353 350 346 342 342 342 340 338 337 337 337 336 331 324 316 308 302 298 296 294 288 278 276 281 280 281 289 293 297 302 306 315 321 319 316 313 310 308 300 290 285 284 284 282 279 278
200 206 207 208 211 215 214 211 209 214 224 234 239 242 243 242 235 211 173 151 134 121 113 106 101 96 80 57 41 23 13 14 14 12 12 12 9 5 2 357 351 347 345 343 341 340 338 337 337 337 336 334 328 323 318 313 309 305 301 295 291 290 288 284 288 296 299 303 309 311 317 325 321 318 315 309 306 303 296 291 286 282 279 276 272
201 207 207 206 209 208 206 206 207 214 225 230 233 235 227 206 181 163 150 136 127 121 116 113 106 94 74 48 37 27 22 24 23 22 22 19 14 7 359 354 349 345 344 343 341 341 339 337 337 337 337 338 334 331 331 326 322 316 309 307 308 309 306 300 302 305 301 303 311 313 315 321 318 316 317 313 309 304 299 294 288 282 277 275 271
198 203 204 204 204 201 201 206 210 217 223 222 223 218 184 160 158 154 142 131 128 124 116 111 101 84 67 49 41 37 34 33 32 29 25 18 9 1 356 352 348 346 346 346 344 343 341 340 340 342 343 343 341 340 342 338 332 326 325 328 326 322 320 314 308 305 302 304 308 310 313 316 314 315 319 314 305 301 298 294 290 289 286 280 273
195 202 203 199 197 197 201 207 210 213 213 207 197 175 157 161 166 154 142 134 128 122 115 105 91 77 68 57 49 47 44 39 36 29 22 15 6 358 356 353 350 349 349 350 349 347 346 345 344 347 348 345 343 345 346 343 339 337 339 339 336 330 323 312 306 305 305 307 312 315 320 321 321 322 320 314 308 308 308 304 297 297 298 292 285
197 203 200 194 194 196 198 199 200 201 196 183 168 163 169 178 170 155 150 143 130 120 115 104 87 75 70 67 60 54 48 42 36 28 17 11 6 3 1 357 355 355 354 356 356 352 350 348 349 351 350 346 345 348 349 346 342 343 342 339 338 333 322 312 310 308 308 315 321 323 326 327 323 320 318 312 306 308 317 317 302 289 298 320 335
201 204 198 192 193 193 190 190 188 184 175 166 165 172 178 173 161 156 154 148 136 124 112 99 86 78 74 73 68 59 52 43 34 25 16 11 7 5 5 4 3 3 3 3 360 357 354 351 354 358 355 354 354 353 353 350 343 344 347 344 338 332 329 329 322 313 317 324 324 322 325 323 315 314 313 303 299 304 318 323 311 293 303 347 6
201 202 195 190 189 186 184 180 174 169 166 168 173 175 170 162 157 154 148 141 131 119 107 96 90 87 81 77 71 61 51 41 33 25 16 12 11 11 10 10 10 9 9 8 2 359 357 356 4 7 360 359 2 2 2 357 349 353 360 351 339 338 343 336 323 323 328 321 322 329 323 311 301 302 300 295 306 322 329 325 315 298 289 5 26
200 196 192 188 184 178 173 168 164 167 173 176 175 169 162 156 152 147 140 132 122 113 107 103 99 94 86 80 71 60 50 44 39 34 28 20 17 19 18 17 18 16 11 7 5 5 2 4 13 9 357 360 8 11 9 4 360 2 4 355 347 352 360 351 346 355 345 322 329 334 319 323 338 337 337 344 349 348 347 334 313 310 336 64 46
195 192 188 184 175 168 165 163 165 171 175 174 168 162 156 150 147 143 137 128 120 114 111 107 102 96 89 81 73 63 55 51 47 42 43 44 29 24 26 25 25 23 13 5 8 12 13 14 13 2 359 7 14 16 14 12 10 5 3 360 354 356 356 352 358 3 349 335 333 335 359 8 2 9 10 1 360 359 356 352 341 350 16 66 78
192 190 185 177 169 165 162 162 165 169 170 167 161 156 151 147 145 141 133 125 119 117 115 111 105 98 93 86 77 68 59 57 52 44 49 63 55 35 33 32 28 24 18 11 11 16 20 19 7 359 5 9 9 16 19 16 12 6 2 1 356 354 350 346 348 346 347 359 353 354 29 26 9 16 16 1 3 6 360 1 3 6 16 88 109
189 186 179 171 166 164 161 159 162 165 165 161 156 152 149 146 143 136 129 124 122 121 118 113 107 100 97 91 82 73 66 62 56 50 54 65 64 45 34 35 31 25 22 17 15 17 20 17 6 2 6 6 7 18 23 15 10 11 12 17 16 14 11 4 352 342 357 25 24 14 27 30 18 21 17 8 13 9 3 15 23 26 37 54 73
184 180 173 167 163 161 158 158 160 161 160 156 152 150 148 144 139 134 129 127 126 125 120 114 111 106 101 96 87 81 76 69 62 58 60 64 61 47 36 37 34 26 23 19 18 21 20 17 15 10 10 12 12 18 17 9 14 25 29 38 42 43 43 33 19 13 25 40 41 32 33 34 27 23 16 9 12 13 12 22 35 45 53 55 62
178 174 168 163 160 158 158 159 158 156 155 154 151 148 146 141 136 134 133 131 130 127 122 118 116 112 107 101 95 92 84 73 62 58 61 64 59 47 38 39 38 31 27 23 22 26 26 23 20 18 21 21 17 17 10 360 12 32 36 38 42 44 44 36 30 33 38 41 41 37 36 33 24 21 20 15 18 22 17 22 37 46 55 63 66
174 169 164 162 161 160 159 158 155 152 152 151 148 146 144 141 138 136 135 135 134 130 127 125 121 117 114 108 104 101 87 71 60 57 60 61 55 47 45 46 46 40 33 29 30 34 35 33 29 28 28 18 12 23 17 355 1 25 33 33 37 41 40 34 33 39 41 41 42 39 37 36 30 26 26 23 24 23 21 41 46 44 66 74 68
171 166 163 163 162 161 159 156 153 150 149 148 146 145 144 142 140 140 139 138 137 135 132 130 126 121 119 116 113 108 90 69 59 55 59 61 56 54 57 55 53 51 43 40 42 44 42 41 36 32 26 12 7 28 33 6 359 16 27 32 43 50 45 37 38 46 49 49 51 52 49 46 43 42 41 35 31 28 40 58 41 26 67 76 71
168 166 165 163 161 159 159 157 152 150 149 148 147 146 145 145 145 146 145 142 141 141 138 135 131 126 124 122 120 117 95 71 61 56 59 66 64 62 67 67 62 61 56 51 52 54 54 52 42 30 24 17 16 33 42 24 15 24 34 47 56 59 59 50 46 55 59 56 54 56 53 46 42 42 43 46 46 42 44 43 29 28 70 78 71
169 167 164 161 159 157 159 159 153 150 150 149 148 147 147 149 150 150 148 145 145 145 141 136 132 128 127 127 125 123 103 76 66 61 61 68 70 69 74 77 73 71 69 63 59 59 59 55 48 40 33 28 31 45 44 34 35 38 43 55 59 56 59 59 57 60 60 56 51 48 49 46 40 37 35 37 42 43 41 35 27 33 65 73 70
171 167 161 159 158 157 159 159 154 151 151 150 150 150 149 150 152 151 149 146 146 145 142 136 131 128 130 130 126 123 109 84 72 68 68 72 76 75 77 82 81 79 76 71 64 59 53 48 44 42 38 35 42 53 49 44 48 54 59 66 67 64 60 55 56 59 56 54 51 47 48 48 43 39 35 34 37 39 39 37 31 30 43 54 63
166 162 157 155 157 157 158 157 154 152 152 151 151 151 151 151 152 149 148 147 145 143 140 133 128 131 137 137 130 122 111 91 79 77 77 77 78 77 77 82 84 82 78 72 65 58 50 43 40 39 39 40 46 53 54 53 55 57 63 65 62 63 65 61 59 60 57 55 53 48 48 48 44 42 40 36 37 38 38 39 39 36 36 43 53
158 156 153 152 154 156 155 155 155 154 155 155 153 151 151 152 150 148 148 148 143 139 135 131 132 139 145 143 137 130 117 99 86 84 83 80 80 79 78 79 80 80 77 69 61 55 48 42 42 42 42 44 49 55 58 60 60 60 63 65 63 63 68 65 61 61 61 59 56 51 50 51 49 47 45 43 41 41 40 42 44 46 46 45 49
152 150 147 148 154 155 152 153 154 154 157 159 155 148 148 148 147 146 146 144 140 136 133 133 136 140 141 137 133 129 121 107 95 89 87 84 83 83 84 83 80 77 75 70 61 54 47 47 51 51 49 50 56 61 61 60 62 65 67 68 69 68 69 67 64 63 62 59 56 54 53 55 56 54 52 51 48 47 47 49 49 52 55 54 54
144 141 143 149 155 152 150 154 158 157 158 159 152 143 143 144 143 144 144 142 140 136 134 133 133 134 134 131 129 127 120 111 101 93 91 90 88 86 86 87 84 80 78 74 65 55 51 58 63 61 59 60 63 66 65 62 62 66 68 69 70 70 70 69 67 64 61 58 56 54 54 55 58 58 56 55 55 55 57 57 56 56 57 57 59
141 139 145 153 155 152 152 158 161 158 158 156 147 139 140 142 142 144 145 144 142 138 137 137 135 134 135 135 134 130 123 115 107 99 95 93 92 91 88 86 87 86 83 81 76 71 71 77 78 74 70 66 64 64 66 64 63 64 65 67 69 71 70 68 65 62 61 61 58 57 55 53 54 56 57 57 59 60 61 61 60 60 59 58 58
144 147 154 158 156 155 158 161 161 159 160 158 152 145 142 141 143 146 147 146 144 142 142 144 143 142 143 142 139 135 128 122 115 106 99 95 94 94 90 85 85 87 87 88 89 87 84 83 83 79 72 65 62 61 61 60 61 61 62 65 67 67 66 65 64 63 63 63 62 61 60 57 55 56 58 60 62 63 63 64 64 63 63 61 59
152 159 162 159 156 158 159 159 159 160 162 161 157 153 149 144 144 148 149 147 147 148 149 151 150 149 148 146 142 137 134 131 127 119 111 103 97 95 93 87 84 84 84 85 88 89 88 87 86 82 75 68 64 58 52 54 58 59 60 62 63 63 62 61 61 62 62 62 62 61 61 61 61 60 60 61 61 61 62 65 66 65 65 64 63
163 166 160 152 155 160 161 158 158 158 158 156 155 155 151 146 145 149 152 152 153 155 156 158 159 158 154 149 143 139 140 139 138 137 134 126 117 111 106 97 91 88 84 81 82 86 90 91 88 81 74 66 59 52 48 52 58 60 61 62 62 61 61 60 59 60 60 59 59 60 60 62 64 63 61 60 60 59 58 59 62 64 64 66 68
159 157 149 144 150 157 158 156 154 152 151 152 155 154 150 146 147 151 155 157 159 161 163 164 165 164 159 153 148 148 149 145 144 148 150 146 141 134 126 115 98 94 95 93 93 92 89 88 80 59 49 51 54 54 55 55 55 56 58 60 61 62 63 62 59 57 55 54 56 57 58 60 63 63 62 60 58 57 55 54 57 60 61 64 65
146 147 151 151 145 139 140 144 144 142 144 149 155 154 148 146 146 148 154 161 165 165 166 166 168 167 160 155 156 159 156 150 147 149 147 142 136 127 124 118 103 101 113 114 107 98 88 82 72 52 51 56 57 56 59 61 59 57 54 54 56 57 58 59 57 53 50 51 53 53 54 56 58 60 61 60 58 55 51 50 51 54 58 62 63
142 146 152 152 150 148 147 147 147 143 140 146 151 146 142 145 147 149 155 163 166 166 166 165 165 162 154 152 158 159 152 148 147 146 141 133 124 117 114 113 106 108 117 114 104 100 94 72 50 49 51 53 52 51 52 56 59 60 58 55 53 52 52 53 52 52 52 51 51 52 51 52 53 53 55 57 57 55 52 49 49 50 54 58 60
144 146 147 149 153 155 154 153 155 154 150 153 154 145 137 140 145 151 157 163 167 170 171 169 167 162 155 157 162 157 152 153 154 152 146 137 125 114 108 106 105 109 115 110 103 110 113 83 60 57 55 55 55 52 50 50 49 54 60 58 52 51 52 47 40 46 55 56 54 53 51 50 51 50 48 49 50 49 48 47 47 50 53 54 54
142 142 143 147 152 151 148 151 155 156 156 159 158 150 143 140 138 146 157 166 171 174 174 173 175 174 169 167 167 161 159 160 158 157 156 149 137 124 110 101 99 105 115 116 105 98 96 81 71 65 61 59 57 51 50 49 45 46 53 55 52 53 53 44 34 41 53 54 52 53 51 50 52 52 49 48 46 44 43 42 40 44 51 56 55
134 136 140 145 147 147 148 151 152 152 157 163 163 157 151 144 139 143 153 161 167 172 173 173 174 173 172 172 169 163 162 161 158 159 160 152 144 141 130 111 97 104 123 126 107 98 93 82 75 70 64 63 59 55 54 51 48 48 50 53 56 57 51 39 37 47 52 50 50 52 51 50 52 53 51 49 48 45 43 42 41 40 43 49 54
138 144 147 148 146 146 148 150 150 153 159 166 165 159 153 148 145 145 149 153 158 165 170 173 173 168 166 167 164 160 158 157 158 160 158 150 145 144 141 131 110 113 149 160 140 133 115 93 84 74 65 60 55 56 57 53 50 51 53 55 59 56 42 33 39 45 47 49 49 47 45 46 48 50 50 48 47 48 46 44 43 42 40 43 45
149 154 158 159 158 156 156 156 159 162 164 167 165 157 151 151 152 154 156 157 158 161 166 172 176 174 169 164 159 156 153 153 157 160 157 152 147 138 142 164 163 151 162 171 159 142 113 103 102 86 75 72 61 57 61 55 49 45 44 51 58 54 45 46 45 38 38 46 47 41 37 39 40 45 50 48 45 46 47 44 42 40 38 41 42
153 154 159 164 166 166 162 160 164 168 167 167 164 157 155 158 161 162 162 161 161 162 163 167 173 176 174 167 160 156 154 157 161 162 160 158 155 153 171 206 192 168 171 173 155 139 121 115 114 94 88 86 72 64 63 59 53 44 35 34 38 39 43 47 43 33 35 45 43 36 34 35 32 35 46 48 45 46 49 49 47 44 37 33 36
150 148 152 159 165 166 161 161 169 171 166 164 164 162 162 165 165 163 163 164 165 166 163 161 166 172 174 171 165 161 161 166 167 166 166 167 169 185 219 238 202 177 180 173 158 155 153 146 144 149 133 126 118 115 96 82 81 69 52 43 39 41 48 50 39 27 29 40 39 32 33 36 33 32 42 48 45 43 44 46 50 50 41 30 32
156 156 158 161 163 163 161 167 175 174 166 163 169 173 169 167 165 166 167 168 169 169 167 166 170 174 172 169 167 166 168 172 175 176 181 183 187 204 221 220 198 193 193 176 166 169 170 168 186 208 198 203 194 172 152 136 129 109 88 82 66 55 63 68 46 27 24 35 37 31 29 33 33 33 42 50 50 45 42 39 42 45 42 35 32
159 164 169 169 166 165 165 167 171 171 168 170 177 180 173 167 167 170 172 172 173 175 174 174 178 178 169 163 164 167 173 181 184 185 187 190 193 198 197 189 187 194 190 173 170 175 172 162 156 157 155 162 181 187 181 162 144 139 151 146 99 64 51 48 41 30 26 29 31 30 32 34 34 34 40 48 50 47 44 39 36 33 35 36 33
158 164 171 171 168 167 167 167 169 174 178 180 180 178 174 171 171 174 176 177 180 183 181 180 182 178 167 162 165 170 176 184 188 186 185 186 186 183 179 177 179 182 183 178 173 172 169 152 145 152 156 149 166 184 187 182 171 170 189 211 98 74 56 42 38 30 27 30 31 32 34 31 29 38 47 51 47 42 40 40 38 33 30 31 30
155 159 166 168 166 163 164 169 177 181 182 180 179 177 174 173 175 178 181 183 186 187 186 185 182 175 168 168 169 171 177 184 185 184 185 184 181 179 177 176 175 178 183 178 170 173 175 157 146 159 163 156 169 181 179 187 191 184 185 195 174 124 91 63 45 29 28 34 32 32 39 34 27 39 54 53 38 31 31 35 38 37 37 35 30
152 154 160 165 163 161 164 173 180 181 179 179 179 178 175 174 177 182 186 188 190 190 189 187 179 173 176 178 174 172 180 188 182 181 185 184 179 177 176 178 184 192 194 183 170 172 177 168 165 177 175 167 181 187 180 188 198 194 190 192 189 184 148 92 65 37 35 43 36 32 41 42 36 45 51 33 24 38 40 35 33 34 38 40 34
154 156 161 165 166 167 170 171 172 176 181 182 180 178 177 177 181 185 189 192 193 192 191 188 178 171 178 182 177 175 186 197 185 180 183 181 175 175 178 182 186 192 197 195 184 178 181 180 180 184 182 179 189 193 188 192 197 198 198 196 192 198 193 132 96 57 48 53 46 40 41 38 39 49 39 19 33 53 48 35 32 32 33 38 37
155 158 162 166 168 172 172 166 166 176 185 184 180 180 181 182 186 189 191 193 194 193 193 190 180 171 174 179 180 183 193 199 191 184 182 179 175 176 179 181 182 186 194 198 193 188 190 192 186 183 187 192 198 200 198 198 200 207 211 203 200 208 212 187 140 86 59 52 51 57 58 47 47 58 47 32 33 47 54 47 39 32 28 30 36
156 157 160 163 167 172 172 167 167 174 181 181 181 184 185 187 190 192 191 191 192 195 195 191 183 177 175 179 184 190 194 196 193 188 184 182 181 182 183 182 182 185 192 193 189 188 192 194 192 190 193 196 197 198 200 201 205 211 213 211 213 216 209 198 186 149 99 40 34 67 81 64 31 39 53 49 28 27 49 51 34 22 20 17 23
162 162 164 166 168 171 173 172 171 174 178 182 184 185 188 192 193 191 189 189 189 192 194 191 187 185 183 183 186 191 194 196 194 191 189 188 186 186 187 186 184 187 191 190 185 185 189 193 194 196 197 200 201 200 201 204 206 210 212 214 219 221 211 209 216 211 210 241 282 20 104 91 64 51 50 49 36 34 43 34 18 14 13 3 358
165 167 170 171 171 171 172 173 175 177 181 185 188 188 190 191 190 187 187 187 186 189 192 192 190 189 189 188 189 191 194 197 196 192 190 190 188 188 189 188 187 191 193 190 187 187 188 189 194 198 200 202 202 201 201 201 202 206 210 210 212 216 216 215 218 219 225 241 255 260 261 211 127 132 153 240 15 30 28 355 345 340 331 329 334
166 170 173 172 171 172 173 174 177 181 184 187 189 189 188 187 185 184 184 184 185 189 194 194 192 192 192 192 192 192 194 197 198 194 191 190 191 191 191 191 192 195 195 193 194 194 191 189 195 198 200 203 205 206 207 205 204 206 209 211 214 217 215 210 211 218 223 229 237 239 239 255 255 200 204 257 283 289 297 302 307 314 312 309 314
169 172 172 171 170 173 173 174 177 182 185 185 186 186 185 185 184 184 184 186 189 194 197 198 195 193 193 193 193 194 195 196 198 196 193 191 191 192 192 191 193 196 196 195 195 196 197 198 200 201 202 205 207 207 208 209 209 208 210 215 221 223 218 210 210 215 215 214 231 241 234 233 251 250 236 243 257 267 279 289 294 298 300 297 299
172 173 172 172 174 176 178 180 183 186 186 185 184 185 186 186 186 186 188 191 193 197 200 200 197 195 194 195 195 196 196 197 198 197 195 194 193 192 191 191 191 193 195 196 195 195 198 202 204 205 206 208 208 208 210 213 211 208 214 222 227 226 223 220 220 217 210 205 215 236 238 235 242 248 242 241 249 257 270 282 289 292 292 291 294
172 172 172 174 176 177 181 187 191 192 190 188 188 188 188 188 189 191 193 196 199 200 201 201 199 197 197 197 197 197 198 198 198 198 197 196 195 194 193 192 191 193 194 194 194 195 199 202 205 208 209 208 209 210 211 210 209 213 221 229 231 228 226 227 225 221 215 211 213 227 238 240 243 248 252 255 257 260 266 274 280 285 288 289 290